Location: ?????
(30.2541°N, 31.0910°E)
Time: 19:08:22
(UTC+00:00)

ARIANE 5 R/B - Visible Passes

Search period start: 15 April 2024 00:00
Search period end: 25 April 2024 00:00
Orbit: 748 x 793 km, 98.8° (Epoch: 15 April)

Date Brightness Start Highest point End Pass type
(mag) Time Alt. Az. Time Alt. Az. Time Alt. Az.
15 Apr 5.3 01:44:06 10° ENE 01:47:00 15° E 01:49:52 10° SE visible
16 Apr 2.9 02:45:53 10° NNE 02:51:06 72° ESE 02:56:16 10° S visible
17 Apr 4.5 02:11:17 10° NE 02:15:50 30° E 02:20:19 10° SSE visible
18 Apr 5.4 01:38:20 10° ENE 01:40:24 12° E 01:42:27 10° ESE visible
19 Apr 3.2 02:39:23 10° NNE 02:44:33 60° ESE 02:49:39 10° S visible
20 Apr 4.8 02:04:59 10° NE 02:09:15 25° E 02:13:28 10° SSE visible
22 Apr 3.5 02:32:56 10° NNE 02:38:00 50° E 02:42:59 10° S visible
23 Apr 5.0 01:58:45 10° NE 02:02:40 21° E 02:06:31 10° SE visible
